• In Denmark
  • List of Countries
  • For 7 days
  • Water Temperature
  • Satellite Maps
  • Weather Map
  • Weather Widgets
  • user-avatar
    Login

    Hourly Weather Melbourne

    Today, 22 July, Saturday

    Time Temperature Precipitation Wind Pressure Humidity
    00:00 +5°C° 0 mm 3 mps 765 mmHg 84%
    01:00 +5°C° 0 mm 4 mps 765 mmHg 83%
    02:00 +5°C° 0 mm 4 mps 765 mmHg 81%
    03:00 +5°C° 0 mm 4 mps 765 mmHg 79%
    04:00 +5°C° 0 mm 6 mps 764 mmHg 70%
    05:00 +5°C° 0 mm 6 mps 764 mmHg 70%
    06:00 +5°C° 0 mm 6 mps 764 mmHg 70%
    07:00 +5°C° 0 mm 6 mps 764 mmHg 69%
    08:00 +7°C° 0 mm 6 mps 764 mmHg 66%
    09:00 +8°C° 0 mm 6 mps 763 mmHg 63%
    10:00 +9°C° 0 mm 7 mps 763 mmHg 60%
    11:00 +10°C° 0 mm 7 mps 762 mmHg 57%
    12:00 +11°C° 0 mm 7 mps 762 mmHg 54%
    13:00 +12°C° 0 mm 7 mps 761 mmHg 52%
    14:00 +12°C° 0 mm 7 mps 760 mmHg 53%
    15:00 +12°C° 0 mm 7 mps 760 mmHg 55%
    16:00 +13°C° 0 mm 6 mps 760 mmHg 57%
    17:00 +11°C° 0 mm 7 mps 760 mmHg 58%
    18:00 +10°C° 0 mm 7 mps 760 mmHg 59%
    19:00 +10°C° 0 mm 7 mps 760 mmHg 60%
    20:00 +10°C° 0 mm 7 mps 760 mmHg 59%
    21:00 +10°C° 0 mm 6 mps 759 mmHg 57%
    22:00 +10°C° 0 mm 6 mps 759 mmHg 56%
    23:00 +10°C° 0 mm 6 mps 759 mmHg 56%

    Tomorrow, 23 July, Sunday

    Time Temperature Precipitation Wind Pressure Humidity
    00:00 +10°C° 0 mm 6 mps 758 mmHg 55%
    01:00 +9°C° 0 mm 6 mps 758 mmHg 55%
    02:00 +9°C° 0 mm 6 mps 758 mmHg 56%
    03:00 +9°C° 0 mm 6 mps 758 mmHg 58%
    04:00 +9°C° 0 mm 5 mps 757 mmHg 59%
    05:00 +8°C° 0 mm 5 mps 758 mmHg 63%
    06:00 +8°C° 0 mm 5 mps 758 mmHg 67%
    07:00 +8°C° 0 mm 4 mps 758 mmHg 71%
    08:00 +10°C° 0 mm 4 mps 758 mmHg 69%
    09:00 +10°C° 0 mm 5 mps 758 mmHg 68%
    10:00 +12°C° 0 mm 5 mps 759 mmHg 67%
    11:00 +13°C° 0.1 mm 5 mps 758 mmHg 66%
    12:00 +14°C° 0.1 mm 5 mps 758 mmHg 65%
    13:00 +15°C° 0.1 mm 5 mps 758 mmHg 64%
    14:00 +14°C° 0.6 mm 5 mps 758 mmHg 70%
    15:00 +14°C° 0.6 mm 4 mps 757 mmHg 76%
    16:00 +13°C° 0.6 mm 4 mps 757 mmHg 82%
    17:00 +12°C° 0.4 mm 4 mps 758 mmHg 85%
    18:00 +11°C° 0.4 mm 4 mps 758 mmHg 87%
    19:00 +11°C° 0.4 mm 3 mps 758 mmHg 90%
    20:00 +10°C° 0.1 mm 4 mps 759 mmHg 90%
    21:00 +10°C° 0.1 mm 4 mps 759 mmHg 91%
    22:00 +8°C° 0.1 mm 4 mps 760 mmHg 92%
    23:00 +9°C° 0 mm 3 mps 760 mmHg 92%

    Day after tomorrow, 24 July, Monday

    Time Temperature Precipitation Wind Pressure Humidity
    00:00 +9°C° 0 mm 3 mps 760 mmHg 93%
    01:00 +9°C° 0 mm 3 mps 760 mmHg 93%
    02:00 +9°C° 0 mm 3 mps 760 mmHg 93%
    03:00 +9°C° 0 mm 3 mps 761 mmHg 93%
    04:00 +8°C° 0 mm 3 mps 761 mmHg 94%
    05:00 +8°C° 0 mm 3 mps 761 mmHg 94%
    06:00 +8°C° 0 mm 3 mps 762 mmHg 94%
    07:00 +8°C° 0 mm 2 mps 762 mmHg 94%
    08:00 +9°C° 0 mm 3 mps 763 mmHg 90%
    09:00 +10°C° 0 mm 3 mps 763 mmHg 87%
    10:00 +11°C° 0 mm 3 mps 763 mmHg 84%
    11:00 +12°C° 0.1 mm 3 mps 763 mmHg 78%
    12:00 +13°C° 0.1 mm 3 mps 763 mmHg 73%
    13:00 +14°C° 0.1 mm 3 mps 763 mmHg 68%
    14:00 +14°C° 0.2 mm 3 mps 763 mmHg 70%
    15:00 +14°C° 0.2 mm 3 mps 763 mmHg 73%
    16:00 +13°C° 0.2 mm 3 mps 762 mmHg 75%
    17:00 +13°C° 0.1 mm 2 mps 763 mmHg 80%
    18:00 +12°C° 0.1 mm 2 mps 763 mmHg 86%
    19:00 +10°C° 0.1 mm 1 mps 764 mmHg 92%
    20:00 +9°C° 0 mm 2 mps 764 mmHg 93%
    21:00 +9°C° 0 mm 2 mps 764 mmHg 93%
    22:00 +9°C° 0 mm 2 mps 764 mmHg 94%
    23:00 +9°C° 0 mm 2 mps 764 mmHg 93%

    25 July, Tuesday

    Time Temperature Precipitation Wind Pressure Humidity
    00:00 +9°C° 0 mm 3 mps 764 mmHg 93%
    01:00 +9°C° 0 mm 3 mps 763 mmHg 92%
    02:00 +9°C° 0 mm 3 mps 763 mmHg 92%
    03:00 +8°C° 0 mm 4 mps 763 mmHg 92%
    04:00 +8°C° 0 mm 4 mps 762 mmHg 92%
    05:00 +8°C° 0 mm 4 mps 762 mmHg 90%
    06:00 +8°C° 0 mm 5 mps 762 mmHg 89%
    07:00 +8°C° 0 mm 5 mps 762 mmHg 88%
    08:00 +9°C° 0.1 mm 6 mps 762 mmHg 85%
    09:00 +9°C° 0.1 mm 6 mps 762 mmHg 82%
    10:00 +10°C° 0.1 mm 6 mps 762 mmHg 79%
    11:00 +13°C° 0 mm 6 mps 761 mmHg 74%
    12:00 +14°C° 0 mm 7 mps 760 mmHg 68%
    13:00 +16°C° 0 mm 7 mps 760 mmHg 62%
    14:00 +16°C° 0 mm 6 mps 759 mmHg 63%
    15:00 +16°C° 0 mm 6 mps 758 mmHg 64%
    16:00 +16°C° 0 mm 5 mps 758 mmHg 65%
    17:00 +15°C° 0.3 mm 5 mps 758 mmHg 70%
    18:00 +13°C° 0.3 mm 4 mps 758 mmHg 75%
    19:00 +12°C° 0.3 mm 4 mps 758 mmHg 80%
    20:00 +12°C° 0.2 mm 4 mps 758 mmHg 82%
    21:00 +12°C° 0.2 mm 4 mps 758 mmHg 84%
    22:00 +11°C° 0.2 mm 4 mps 758 mmHg 86%
    23:00 +11°C° 0.1 mm 4 mps 758 mmHg 86%

    26 July, Wednesday

    Time Temperature Precipitation Wind Pressure Humidity
    00:00 +11°C° 0.1 mm 4 mps 757 mmHg 86%
    01:00 +11°C° 0.1 mm 4 mps 757 mmHg 86%
    02:00 +9°C° 0 mm 5 mps 757 mmHg 85%
    03:00 +9°C° 0 mm 5 mps 757 mmHg 84%
    04:00 +9°C° 0 mm 5 mps 757 mmHg 84%
    05:00 +9°C° 0 mm 5 mps 757 mmHg 84%
    06:00 +9°C° 0 mm 5 mps 758 mmHg 85%
    07:00 +8°C° 0 mm 5 mps 758 mmHg 85%
    08:00 +9°C° 0.1 mm 5 mps 759 mmHg 83%
    09:00 +10°C° 0.1 mm 5 mps 759 mmHg 80%
    10:00 +11°C° 0.1 mm 6 mps 759 mmHg 77%
    11:00 +12°C° 0.5 mm 5 mps 760 mmHg 79%
    12:00 +12°C° 0.5 mm 5 mps 760 mmHg 80%
    13:00 +12°C° 0.5 mm 5 mps 760 mmHg 82%
    14:00 +10°C° 0.6 mm 5 mps 761 mmHg 83%
    15:00 +10°C° 0.6 mm 5 mps 761 mmHg 83%
    16:00 +10°C° 0.6 mm 5 mps 762 mmHg 84%
    17:00 +9°C° 0.1 mm 5 mps 762 mmHg 86%
    18:00 +8°C° 0.1 mm 4 mps 763 mmHg 87%
    19:00 +7°C° 0.1 mm 4 mps 764 mmHg 89%
    20:00 +7°C° 0.1 mm 4 mps 765 mmHg 88%
    21:00 +7°C° 0.1 mm 4 mps 766 mmHg 87%
    22:00 +6°C° 0.1 mm 4 mps 766 mmHg 86%
    23:00 +7°C° 0 mm 3 mps 767 mmHg 87%

    27 July, Thursday

    Time Temperature Precipitation Wind Pressure Humidity
    00:00 +5°C° 0 mm 3 mps 767 mmHg 87%
    01:00 +6°C° 0 mm 2 mps 767 mmHg 88%
    02:00 +5°C° 0 mm 2 mps 767 mmHg 88%
    03:00 +5°C° 0 mm 2 mps 768 mmHg 88%
    04:00 +5°C° 0 mm 2 mps 768 mmHg 89%
    05:00 +5°C° 0 mm 2 mps 768 mmHg 89%
    06:00 +4°C° 0 mm 2 mps 768 mmHg 89%
    07:00 +4°C° 0 mm 2 mps 769 mmHg 89%
    08:00 +6°C° 0 mm 2 mps 769 mmHg 85%
    09:00 +8°C° 0 mm 1 mps 769 mmHg 80%
    10:00 +10°C° 0 mm 1 mps 769 mmHg 75%
    11:00 +11°C° 0 mm 1 mps 769 mmHg 68%
    12:00 +12°C° 0 mm 1 mps 768 mmHg 61%
    13:00 +13°C° 0 mm 1 mps 768 mmHg 54%
    14:00 +13°C° 0 mm 1 mps 767 mmHg 55%
    15:00 +13°C° 0 mm 2 mps 767 mmHg 56%
    16:00 +13°C° 0 mm 2 mps 767 mmHg 57%
    17:00 +10°C° 0 mm 2 mps 767 mmHg 63%
    18:00 +9°C° 0 mm 3 mps 767 mmHg 70%
    19:00 +7°C° 0 mm 3 mps 767 mmHg 76%
    20:00 +7°C° 0 mm 3 mps 767 mmHg 76%
    21:00 +7°C° 0 mm 3 mps 767 mmHg 77%
    22:00 +6°C° 0 mm 4 mps 767 mmHg 77%
    23:00 +6°C° 0 mm 4 mps 767 mmHg 74%
    Show more